Wind_Speed
56 56 56 56 57 56 56 55 54 53 52 49 47 46 46 45 44 45 45 46 47 46 46 47 47 48 48 49 48 46 44 42 40 40 41 42 42 42 39 35 33 34 35 34 34 34 34 34 34 34 34 35 35 36 35 35 36 39 42 44 44 41 36 34 35 34 34 35 34 33 32 31 30 30 30 31 29 28 26 25 24 23 23 23 24
53 53 52 52 53 54 54 54 53 51 48 44 42 42 42 42 43 44 45 46 47 47 48 49 49 50 51 51 49 46 43 42 41 41 42 42 42 39 35 33 33 34 35 36 36 36 36 37 37 37 36 35 36 36 36 36 37 39 42 44 44 43 39 36 36 35 34 35 36 35 34 32 31 30 30 32 32 31 29 26 25 25 24 24 24
45 44 44 45 45 46 46 45 43 41 38 38 38 38 39 41 43 44 44 46 47 48 49 51 52 53 53 51 48 44 43 43 42 41 41 40 37 34 32 33 33 34 36 37 38 39 39 40 40 38 37 37 37 37 37 37 38 40 42 45 45 44 42 39 37 35 34 34 36 37 35 33 32 31 30 31 32 32 31 28 26 26 26 26 25
33 33 34 36 36 37 39 38 36 35 34 34 36 38 40 42 42 44 45 47 48 50 52 53 55 55 53 50 46 44 43 43 41 40 38 36 33 32 32 32 33 34 35 36 38 39 40 41 41 40 40 40 38 38 38 38 39 41 42 45 46 46 43 40 37 35 34 34 36 37 35 33 32 31 31 31 30 31 31 30 28 28 27 27 26
30 32 33 35 34 33 34 36 35 36 37 36 39 42 43 43 43 45 46 48 50 52 54 55 56 55 51 47 44 43 43 42 40 38 35 33 32 31 32 32 32 34 35 36 37 39 41 43 44 43 44 42 40 38 38 39 41 41 43 46 47 47 44 41 38 36 35 35 36 36 35 33 32 31 31 31 32 31 30 29 29 29 28 28 27
37 39 38 41 41 37 37 39 40 42 43 44 46 46 44 43 44 45 46 48 51 54 54 54 54 52 47 43 42 42 41 39 37 35 32 31 31 31 31 31 32 33 35 35 37 39 42 45 46 45 45 43 40 39 38 39 42 43 44 47 48 47 45 42 39 37 36 35 36 36 35 33 32 31 30 31 32 32 30 29 29 30 29 28 28
42 44 41 42 44 43 44 46 45 45 45 46 45 43 43 45 44 44 46 49 51 52 51 51 51 47 43 40 40 40 38 35 33 31 30 30 31 31 31 31 32 33 33 33 34 35 36 38 40 40 40 40 39 38 37 38 42 44 45 47 48 48 46 44 41 38 36 36 37 37 36 35 33 31 31 31 32 33 31 30 30 30 29 29 29
41 44 43 42 43 43 45 45 43 41 42 43 43 45 46 44 43 44 47 49 49 48 48 47 45 41 39 38 37 36 33 31 30 29 30 31 31 31 31 32 33 34 33 33 32 31 30 31 32 33 35 37 37 36 37 38 41 44 46 48 48 48 47 46 42 38 36 36 37 38 37 36 35 33 32 32 33 34 33 32 31 30 29 29 29
39 41 42 43 43 40 39 40 41 42 43 46 49 48 44 41 44 47 48 46 45 44 43 41 39 37 35 34 33 31 30 29 30 31 31 31 30 30 31 34 36 36 35 34 31 29 28 28 29 31 33 35 34 34 36 38 41 43 45 48 49 48 47 46 43 38 35 35 36 38 38 37 36 35 34 33 33 35 35 34 33 31 31 30 30
36 38 39 40 40 38 38 41 44 45 46 48 48 42 40 44 48 49 46 43 41 39 37 36 34 33 31 30 29 29 29 31 32 32 32 31 30 31 33 35 36 37 37 36 31 27 27 28 29 30 32 33 33 33 35 38 40 42 45 48 49 47 45 44 41 37 34 34 36 38 38 37 36 36 36 35 34 35 36 36 34 33 32 32 32
36 37 38 39 39 40 41 43 44 45 44 43 40 39 43 48 48 46 43 40 38 35 32 31 30 28 26 28 29 31 32 33 33 33 34 33 33 34 35 36 37 37 38 36 32 28 27 28 30 30 30 31 33 33 35 37 39 42 45 48 48 46 45 42 39 36 33 33 35 38 39 37 36 36 37 37 35 35 36 35 34 34 34 34 34
34 35 36 36 37 38 40 41 42 42 40 38 39 44 48 49 46 43 39 36 34 32 30 27 26 23 23 27 30 32 33 33 34 34 35 36 36 37 37 38 39 40 39 37 35 33 30 29 31 32 30 30 32 33 35 37 40 43 45 47 47 46 46 43 39 35 33 33 34 37 39 38 38 37 37 37 37 36 35 35 35 36 37 38 38
33 35 37 38 38 39 40 41 41 40 39 41 44 48 49 47 42 38 34 31 28 27 26 26 25 24 25 27 30 32 33 33 34 34 36 37 37 38 38 39 40 41 40 38 38 38 35 33 34 33 30 29 30 33 36 38 40 44 46 47 47 47 47 45 40 36 34 33 33 35 37 38 38 37 36 36 35 34 34 35 36 38 40 41 42
38 40 41 41 40 40 40 40 41 42 43 46 47 48 47 43 38 33 30 26 21 20 22 25 26 25 26 29 32 35 34 34 34 34 35 36 37 38 39 40 41 42 41 40 40 41 40 38 36 35 32 29 30 32 36 39 42 45 46 47 48 49 48 46 43 38 35 35 34 34 35 37 36 34 33 34 33 33 33 35 38 40 41 42 43
40 40 40 40 39 39 40 41 43 44 45 45 45 44 41 37 33 29 25 23 21 20 21 23 24 25 28 31 34 36 35 36 35 35 36 37 38 39 39 41 42 42 42 41 41 42 43 40 38 37 34 30 30 32 36 40 44 46 46 46 48 49 48 46 44 40 37 37 35 34 35 36 35 33 33 33 32 31 31 34 37 38 39 39 40
40 39 39 39 40 42 43 43 44 43 43 42 40 39 35 32 29 26 23 21 19 18 19 24 28 31 34 35 36 36 37 38 38 38 39 39 40 40 40 41 42 43 43 43 43 43 43 42 39 38 35 31 31 32 35 40 44 47 46 45 46 48 48 47 45 41 39 39 37 33 33 34 34 33 34 34 32 29 27 26 28 30 33 36 36
40 40 41 42 43 44 44 44 43 41 39 38 36 33 30 28 26 24 22 20 18 18 19 23 30 33 36 38 39 39 40 41 42 42 42 42 43 44 45 45 45 46 46 46 46 45 45 42 39 37 35 32 30 31 33 38 43 47 47 45 45 48 49 48 46 43 41 40 38 34 31 32 34 36 37 36 33 30 26 23 23 25 30 35 37
43 43 44 44 45 45 45 44 42 39 37 35 32 29 25 24 24 23 22 21 19 19 21 23 28 32 35 39 41 43 45 46 47 46 46 45 45 46 47 48 48 48 48 47 46 44 42 40 38 37 35 32 30 30 31 36 41 47 48 46 44 47 50 49 47 44 43 42 40 38 34 32 33 36 38 37 34 31 29 27 26 26 28 32 37
46 46 46 46 46 45 44 42 39 36 34 32 29 25 22 21 22 23 23 22 20 20 22 27 32 35 36 37 38 41 44 45 46 45 45 45 45 46 46 47 47 46 44 41 39 37 37 37 37 37 35 32 30 30 31 34 39 45 48 46 44 46 49 50 48 45 44 44 42 41 39 36 35 36 38 39 36 32 31 31 31 29 30 31 33
48 48 48 46 45 43 42 40 37 33 29 28 26 23 21 20 21 22 23 23 23 22 24 27 30 32 33 32 33 34 35 36 37 37 37 37 38 39 40 40 39 37 35 32 31 32 33 35 36 36 35 32 31 31 31 33 37 43 47 48 46 47 48 50 49 46 45 45 45 46 46 43 41 39 39 40 38 35 32 32 33 33 34 33 31
49 48 47 44 42 41 40 38 34 30 26 24 24 22 21 20 21 22 23 24 25 25 26 26 27 28 28 28 29 29 29 29 29 29 29 29 30 31 31 32 32 31 30 28 29 30 32 33 35 36 35 33 32 32 32 33 35 40 45 48 49 50 50 50 49 48 47 46 47 49 50 48 45 43 41 40 39 38 36 35 36 37 38 36 31
48 47 45 43 42 41 39 36 33 29 26 24 24 24 24 23 23 23 23 25 26 27 27 27 27 27 27 27 26 26 26 25 25 26 26 26 25 25 27 28 30 30 29 28 28 30 32 33 33 35 35 34 33 33 32 32 34 37 42 47 50 51 51 50 49 49 48 47 48 51 53 50 47 46 44 42 41 42 41 40 41 41 39 37 32
47 46 45 43 42 41 40 37 34 31 29 28 28 28 28 27 26 25 25 26 27 28 29 28 28 27 27 27 27 26 25 24 23 24 24 24 24 23 23 25 28 29 29 29 29 31 32 34 34 34 34 35 34 34 33 33 34 36 40 46 50 51 52 51 50 50 49 49 49 52 54 51 48 47 47 47 45 44 43 43 43 42 40 37 35
46 46 45 44 43 42 41 39 36 35 34 33 31 31 31 31 30 28 27 27 28 29 30 30 29 28 28 28 27 27 25 24 23 22 22 23 24 24 23 23 25 28 30 30 31 32 33 34 35 34 33 34 35 35 34 34 35 36 38 43 47 51 53 54 54 53 52 52 52 53 53 52 50 48 50 50 49 48 47 46 45 45 43 41 39
45 45 45 44 44 43 42 40 38 37 36 35 33 32 32 32 31 31 30 30 30 31 31 31 31 30 29 28 28 28 28 26 25 23 23 23 24 25 25 24 25 27 29 31 32 33 34 35 36 36 35 35 35 36 35 35 35 37 39 41 44 48 52 54 56 56 56 56 56 56 55 53 52 51 51 51 51 53 52 49 47 47 45 42 41
41 42 43 44 44 43 43 41 40 38 37 35 34 34 33 32 32 32 33 33 33 33 33 33 33 32 31 30 29 29 29 29 28 26 25 24 24 25 26 27 27 27 28 31 33 34 35 36 37 37 37 36 36 37 36 36 35 36 37 40 42 45 48 52 54 55 56 57 57 57 57 55 55 54 54 52 52 55 55 51 48 47 45 43 43
41 42 42 44 44 44 44 43 42 40 38 36 35 35 34 34 34 35 35 35 35 35 35 35 34 33 32 32 31 30 30 30 30 29 27 26 25 25 26 27 28 28 28 30 33 35 36 37 38 38 39 38 38 38 38 38 37 36 35 37 41 43 45 48 50 52 54 55 56 58 58 57 57 56 56 55 54 55 56 53 49 48 47 46 46
44 44 43 44 44 45 45 44 44 42 40 39 38 38 39 39 38 38 38 37 37 37 37 37 36 35 34 34 33 33 32 31 31 31 30 29 27 27 27 28 29 29 29 30 32 35 37 38 39 39 40 40 41 41 40 40 39 38 36 36 38 41 43 44 46 48 51 52 55 57 58 58 59 58 57 56 55 55 56 56 54 52 51 51 50
47 45 44 43 44 45 46 46 45 44 44 43 43 43 44 44 44 43 41 40 39 38 38 37 37 37 36 36 35 35 35 34 33 33 33 32 31 29 29 29 29 30 31 31 32 34 37 39 40 41 40 41 42 43 43 42 41 40 39 37 37 40 42 44 45 46 48 49 51 53 56 58 59 59 59 57 55 55 56 56 56 54 52 52 52
50 48 46 45 44 44 44 45 46 46 46 47 47 48 48 47 47 46 44 42 41 40 39 39 39 39 38 37 37 37 37 37 37 36 36 35 34 33 32 31 31 31 31 32 33 34 36 38 40 42 42 42 42 44 45 45 44 43 42 41 40 40 42 45 46 47 47 48 49 50 52 55 58 60 60 59 57 56 56 56 55 54 53 52 53
54 52 50 49 48 46 45 45 46 46 47 48 49 49 49 49 48 47 45 44 43 42 42 42 41 40 39 38 38 38 38 38 39 39 39 38 37 36 36 35 34 33 33 33 33 34 36 37 39 42 44 44 44 44 45 46 47 46 45 45 43 43 43 45 47 48 49 49 49 50 51 53 56 60 61 61 60 59 58 57 56 55 55 55 55
56 55 54 52 51 50 49 48 48 48 49 49 49 49 49 49 49 48 48 46 45 45 44 44 43 42 41 39 39 38 38 38 39 40 41 41 41 41 40 39 38 37 36 35 35 35 36 38 39 41 43 45 46 46 46 47 48 49 48 48 47 46 46 46 46 48 49 50 50 50 51 53 54 57 60 62 62 62 61 60 59 58 57 57 58
57 57 57 55 53 52 52 52 52 52 51 51 51 51 51 51 51 51 51 50 49 48 47 46 45 44 43 42 41 40 40 40 40 41 42 43 44 44 43 43 42 41 40 39 38 38 37 38 39 41 42 44 45 46 47 48 49 50 50 50 50 49 49 49 48 49 49 50 51 51 52 53 55 56 58 59 60 61 61 61 61 60 59 59 59
57 57 58 58 56 55 54 54 54 54 53 53 52 53 53 53 53 53 53 53 52 51 50 48 47 47 47 47 47 47 46 46 45 45 45 46 46 46 46 46 45 44 44 43 42 41 41 40 40 40 42 43 45 46 47 48 49 50 51 52 52 52 52 51 51 51 51 51 52 52 52 53 55 56 57 58 59 59 60 61 61 60 60 60 59
58 58 59 59 59 58 57 55 55 55 55 54 54 55 55 55 55 56 55 54 54 54 52 51 50 51 52 52 52 52 51 50 49 49 48 48 48 48 48 47 47 47 47 46 45 45 44 43 43 42 42 43 44 45 47 48 50 51 52 53 54 54 54 54 53 53 53 53 53 54 55 55 55 56 57 57 58 59 60 61 62 62 61 61 60
62 61 60 59 59 59 59 58 57 57 57 58 58 58 59 59 60 59 58 57 56 56 54 52 52 52 53 54 54 54 53 51 50 49 48 48 48 49 50 49 49 49 49 49 48 48 47 47 47 46 46 45 45 45 46 47 49 50 52 53 54 56 56 57 57 56 56 56 56 57 58 59 59 58 58 58 59 60 61 62 62 63 62 62 61
62 62 61 60 60 59 60 60 60 59 59 60 60 61 61 62 61 61 60 60 59 58 56 54 53 52 53 53 53 53 52 51 49 47 46 45 46 48 50 51 51 50 51 50 50 50 50 50 50 49 49 49 49 48 48 48 49 50 51 52 54 56 57 58 59 59 59 58 58 59 60 62 63 63 63 62 62 62 62 63 63 63 64 64 64
60 60 60 60 59 59 60 60 60 60 60 61 61 62 62 62 62 62 62 62 61 58 56 55 54 53 52 51 51 51 50 49 47 46 46 46 47 48 49 51 52 52 52 52 52 52 52 53 53 53 52 52 52 52 52 52 52 51 51 52 53 55 57 58 59 61 62 62 62 62 62 63 64 65 66 67 67 66 66 65 65 65 65 65 65
57 57 57 58 58 58 58 58 58 58 58 59 61 61 62 62 61 61 60 58 57 55 54 53 53 53 52 51 51 50 49 49 48 48 49 49 49 50 50 51 52 53 53 53 53 53 54 54 55 55 55 55 55 56 56 56 56 55 55 55 54 55 57 58 60 61 63 64 65 65 66 66 66 67 68 69 70 70 70 70 69 69 68 68 67
54 55 55 55 56 57 57 56 56 56 57 59 60 60 61 60 58 56 55 55 54 52 51 50 50 51 50 49 49 49 49 49 50 50 50 50 50 50 50 51 52 52 52 53 54 55 55 56 56 57 57 58 58 59 59 59 59 59 59 59 58 58 58 59 60 61 63 64 66 67 68 69 69 69 69 70 71 72 73 74 74 73 73 72 72
53 54 55 55 57 58 57 56 55 54 55 55 58 60 58 56 55 55 56 57 55 52 48 46 46 47 46 46 48 50 50 51 52 52 52 51 51 51 52 53 52 51 50 51 53 55 56 57 58 59 59 60 60 61 62 62 62 62 62 63 63 63 62 62 62 62 63 64 65 68 69 70 71 72 72 72 72 73 74 75 75 76 77 77 77
52 54 55 57 60 60 59 57 53 51 52 53 57 61 59 55 56 57 57 57 56 51 47 45 46 47 46 46 49 51 52 52 52 52 52 53 52 53 54 55 55 55 54 54 55 56 57 58 59 60 61 62 63 63 64 64 65 65 65 66 66 66 66 66 66 66 65 64 65 68 69 70 71 73 74 74 74 75 75 76 76 76 77 78 79
53 54 54 57 60 60 59 57 54 52 55 56 58 62 61 59 58 58 57 58 58 55 51 49 50 50 49 50 52 53 54 53 53 53 53 53 53 53 55 57 59 60 60 59 58 59 59 60 61 62 62 63 64 65 66 66 67 68 69 69 69 69 70 70 70 70 69 67 67 69 71 70 70 71 73 74 75 76 77 78 78 78 78 78 79
53 55 57 57 59 59 58 58 56 56 59 59 59 62 63 60 57 56 56 59 61 62 60 58 57 56 55 55 55 55 54 54 54 54 54 54 54 55 56 57 59 60 61 60 61 62 63 62 63 63 64 65 66 66 67 68 69 70 71 72 72 72 72 72 73 74 74 72 70 72 74 73 71 71 73 74 74 75 77 78 79 80 80 81 81
54 58 60 59 59 59 59 60 60 60 61 62 63 65 64 62 59 60 62 64 65 66 66 65 64 63 61 60 59 58 57 55 55 55 55 55 56 57 58 59 60 61 61 62 64 65 65 64 64 65 66 67 67 68 68 69 70 72 73 74 74 74 74 74 75 76 77 76 74 74 76 78 75 73 74 75 74 74 76 78 78 79 80 82 83
58 61 62 61 60 59 60 62 63 64 64 65 66 67 66 66 66 67 68 69 69 69 69 69 68 67 66 65 64 63 63 61 60 59 58 58 58 58 59 60 61 62 62 63 65 66 66 65 65 66 67 68 69 70 71 71 72 73 74 75 76 76 76 76 77 78 79 79 78 77 78 80 79 77 77 79 78 77 77 78 79 79 79 80 82
61 64 64 64 63 62 62 64 66 68 69 70 71 71 71 71 71 70 70 71 72 71 71 71 70 69 69 68 67 67 66 66 65 65 64 63 63 62 62 62 62 63 63 64 66 67 67 67 67 67 68 69 71 72 73 73 73 74 75 76 77 78 78 79 80 81 81 81 81 80 80 82 82 80 80 82 82 82 82 82 81 81 80 80 81
63 65 67 68 68 68 68 69 70 72 73 73 74 74 75 74 73 72 72 72 72 73 73 72 72 71 70 69 69 69 68 68 68 68 68 68 67 67 67 67 67 67 67 68 68 69 69 69 70 70 71 72 73 74 74 74 75 75 76 77 78 78 78 79 81 82 83 84 84 83 82 83 84 84 83 84 85 85 86 86 85 84 83 83 84
66 67 69 70 71 72 73 73 74 74 75 76 76 76 76 75 74 73 72 71 72 72 73 73 73 72 71 71 71 70 70 70 70 70 70 71 71 71 71 71 72 72 73 73 73 73 73 73 72 73 74 74 75 76 76 76 76 76 76 77 78 79 79 79 80 82 84 85 86 87 85 85 86 86 86 87 88 88 89 89 89 88 87 87 88
69 70 71 71 72 73 74 75 75 75 76 76 76 76 75 74 73 72 71 71 71 72 72 73 73 72 72 72 72 72 72 72 72 72 72 73 73 74 75 76 76 77 77 77 77 77 77 77 76 75 75 76 76 77 78 79 79 79 78 78 79 79 80 80 81 82 83 85 87 88 87 86 88 88 88 89 90 91 91 91 91 91 90 90 91
70 70 71 72 73 74 75 75 76 76 76 76 76 75 74 72 72 72 71 71 71 71 72 72 72 73 72 72 72 73 73 73 74 74 74 75 76 78 79 80 80 81 81 81 81 81 81 80 79 78 77 77 76 77 77 79 80 80 81 80 81 81 81 81 82 82 83 85 88 89 87 86 88 89 90 90 91 92 94 94 94 94 94 93 93
Wind_Direction
277 277 277 278 278 278 279 281 283 286 288 289 289 288 290 292 294 295 296 296 296 295 294 293 293 293 293 291 287 282 278 273 269 266 264 264 265 269 271 268 265 267 268 267 264 262 264 268 271 273 274 275 275 272 267 257 248 241 239 238 234 227 224 230 237 240 242 240 239 239 243 251 254 255 256 256 253 251 253 256 258 260 261 261 262
277 278 279 279 279 279 280 283 285 287 289 289 288 290 292 294 295 296 296 296 296 295 295 294 295 294 292 289 284 278 274 270 267 265 264 266 268 269 267 265 265 264 266 267 264 264 266 269 272 273 274 276 274 270 265 257 248 241 237 235 234 229 225 227 233 237 240 239 236 238 244 250 250 250 252 255 255 253 254 256 258 258 258 259 260
281 282 283 283 282 283 284 286 287 285 283 284 287 290 293 294 296 296 297 297 297 297 297 296 295 293 290 284 279 274 270 269 267 266 266 267 267 265 264 265 264 263 265 266 266 267 268 270 272 271 273 276 273 266 262 255 247 241 237 234 233 231 227 226 229 233 238 238 235 238 244 249 249 247 248 252 254 254 254 255 257 256 254 255 256
286 284 283 283 284 285 285 285 282 279 278 283 287 291 294 294 295 296 296 297 298 299 299 297 295 290 285 279 274 270 268 267 266 266 266 266 265 264 265 265 264 264 267 268 269 269 269 270 272 271 271 274 272 264 258 252 245 241 238 236 234 232 228 225 227 231 236 238 236 240 245 248 248 246 246 247 249 251 251 253 255 255 254 253 253
277 275 274 276 281 281 278 273 271 275 278 283 288 291 292 292 293 295 296 297 299 300 300 297 292 286 281 275 271 269 267 266 266 266 265 264 264 264 265 265 265 268 270 271 271 270 269 269 270 270 269 271 270 261 253 249 243 238 237 236 234 233 228 224 227 232 235 236 237 240 244 246 246 245 245 244 243 246 248 250 252 254 253 252 252
271 274 276 277 280 276 268 268 273 277 279 283 289 290 291 293 295 297 299 300 301 301 299 294 288 282 277 273 270 268 267 266 265 264 263 262 263 264 265 265 267 270 272 273 273 271 270 269 268 267 266 267 267 257 247 245 241 235 234 235 234 233 229 225 227 231 233 235 236 238 241 242 243 244 245 244 242 243 245 246 248 252 252 253 254
270 275 278 279 282 277 273 279 283 282 284 288 292 293 294 296 298 301 303 303 302 301 296 290 284 279 274 270 268 266 264 263 262 262 262 262 265 266 266 267 270 274 275 277 278 276 274 272 268 266 264 264 263 252 242 241 239 234 233 234 234 234 231 226 227 230 233 235 235 235 238 240 241 244 245 244 242 243 244 245 247 251 252 253 254
272 275 276 277 282 280 280 284 286 288 292 295 296 298 299 300 302 304 304 303 301 297 292 286 281 276 271 268 265 263 262 261 261 261 261 264 266 267 268 269 272 274 275 278 280 280 281 279 273 267 264 263 259 247 239 238 236 232 230 232 234 235 234 230 228 230 234 237 237 235 236 239 241 244 245 244 243 244 245 246 247 250 252 252 253
274 276 275 275 280 282 282 283 286 291 296 297 298 299 300 302 304 305 304 302 298 293 288 283 278 273 270 266 263 261 260 261 262 263 265 268 269 267 268 269 270 269 270 276 279 281 287 290 283 272 265 262 255 245 238 236 235 231 229 230 233 235 236 233 229 231 236 238 237 236 237 240 242 244 245 245 244 245 246 247 248 249 250 250 250
274 276 277 277 280 282 283 283 287 293 296 297 297 298 299 302 304 305 304 300 296 290 285 281 276 273 270 265 261 260 260 261 263 266 267 268 267 266 266 267 268 266 269 276 278 280 288 295 295 282 268 260 253 244 238 236 235 231 228 229 231 233 234 234 231 232 238 239 237 236 237 240 242 244 245 246 246 246 247 248 248 247 246 246 247
273 275 277 278 280 282 284 285 288 292 295 296 296 296 298 301 303 304 303 300 296 290 284 279 275 272 269 264 259 258 259 261 262 264 264 264 264 265 265 265 265 266 269 274 274 275 284 294 299 291 274 261 252 246 238 235 234 232 229 229 230 231 231 231 231 234 238 241 240 237 238 241 244 247 247 247 247 248 249 250 249 247 245 244 245
272 275 277 279 281 283 284 286 288 291 293 294 294 295 298 300 301 302 302 301 298 293 288 282 275 266 260 260 260 258 257 258 259 259 259 259 261 263 263 263 265 267 269 272 271 271 280 293 299 293 278 262 252 246 239 234 232 231 230 230 230 231 230 229 229 232 237 242 243 241 241 243 246 248 248 247 247 248 250 250 249 248 247 246 247
274 278 280 282 283 284 284 285 287 288 290 291 293 295 297 297 299 300 300 301 300 296 292 288 283 271 259 257 259 259 259 259 258 257 257 257 258 260 261 261 263 265 268 272 272 271 278 290 295 290 277 262 250 244 238 233 230 229 229 230 230 229 229 229 227 227 233 239 240 239 239 241 243 244 244 243 244 247 250 251 251 250 249 248 248
277 280 281 282 283 283 283 283 284 286 288 291 292 294 295 295 297 298 298 299 291 280 280 283 283 277 265 258 259 261 262 261 260 260 259 259 258 259 260 261 262 264 268 272 273 273 277 285 289 285 274 261 250 242 237 232 228 227 227 229 229 227 227 228 226 223 227 231 232 233 235 237 238 240 240 241 243 249 254 256 255 254 252 250 249
277 279 280 282 282 282 282 283 285 287 289 291 291 292 293 294 297 297 296 296 282 269 269 271 269 264 258 258 260 262 262 262 263 263 263 263 262 261 261 261 263 264 267 269 270 272 275 280 283 281 273 261 251 242 236 231 226 225 227 231 231 229 229 229 229 225 223 225 228 232 235 236 237 237 239 242 246 250 254 256 255 253 253 252 251
277 278 280 282 284 284 285 286 287 289 289 289 290 291 293 296 298 296 295 292 278 263 259 260 260 256 256 258 259 260 261 262 263 263 263 263 263 263 262 262 262 263 265 266 269 272 275 278 278 274 269 261 252 245 238 232 227 226 228 232 233 232 231 231 231 229 225 225 228 230 234 237 239 240 243 245 245 246 251 256 257 255 254 253 253
277 279 282 284 285 285 286 287 288 288 287 289 289 290 293 297 298 295 293 290 275 254 246 253 260 259 257 257 256 256 258 260 262 263 262 262 262 262 263 263 264 264 266 268 271 273 274 274 269 265 265 260 254 249 243 237 231 227 229 233 234 233 233 232 232 231 229 228 227 225 230 238 241 243 246 245 241 242 250 258 264 265 260 255 253
279 280 282 283 284 285 286 286 286 285 286 287 287 288 294 299 298 295 292 289 278 258 245 246 254 259 260 259 257 256 258 261 263 265 264 263 263 263 263 264 265 267 269 270 270 269 267 263 260 260 262 261 257 253 248 241 234 230 230 233 235 235 235 233 233 234 233 232 229 224 228 238 240 240 243 239 235 240 250 257 263 267 268 261 253
279 281 282 282 283 283 283 283 283 283 285 284 283 286 295 300 300 296 291 288 281 267 254 250 255 261 264 264 262 260 260 262 263 265 267 267 266 266 266 266 266 268 268 267 264 261 258 256 256 257 259 261 260 256 250 244 238 233 231 233 235 236 236 235 234 235 236 236 234 229 228 234 237 237 237 232 229 236 247 254 258 263 269 268 257
278 279 280 280 280 280 280 280 281 281 281 279 279 285 292 298 299 296 291 287 284 277 270 266 266 267 268 267 266 264 263 263 263 265 267 268 268 268 267 266 265 264 262 260 258 257 256 255 256 256 255 257 259 257 251 246 241 236 233 233 234 235 236 236 235 237 238 238 239 236 232 233 235 236 233 229 228 232 237 245 252 257 262 263 257
276 277 277 277 277 276 277 278 279 278 275 273 276 282 287 291 294 294 291 288 285 282 280 279 277 274 273 271 269 267 266 265 265 266 267 269 269 269 267 266 263 260 258 257 256 256 256 255 255 254 251 251 254 255 253 248 243 239 235 234 235 236 237 237 235 237 239 240 240 240 237 235 237 236 231 229 232 234 233 235 242 247 251 252 252
274 274 275 274 274 274 274 275 275 275 273 272 275 279 282 286 289 291 291 289 286 283 282 282 281 279 276 273 271 269 267 266 266 267 268 269 270 271 269 266 263 259 257 257 256 256 257 256 254 253 250 248 249 251 253 250 246 241 237 235 236 236 237 237 236 237 238 239 241 241 239 237 238 238 234 232 235 237 237 238 243 245 245 247 249
271 271 272 272 272 272 272 272 271 271 273 275 277 279 281 284 287 289 290 290 287 284 282 281 282 281 279 275 272 270 268 267 267 268 268 268 268 269 270 267 263 258 255 254 253 253 255 257 256 253 250 247 246 247 249 250 248 244 240 238 237 237 238 238 238 238 238 239 241 243 241 239 240 241 240 238 238 239 239 240 244 247 246 245 244
269 269 270 270 270 271 271 270 270 270 273 276 280 282 283 284 286 288 289 288 287 285 282 280 279 280 280 279 276 272 269 268 268 270 270 269 265 263 265 267 265 258 252 249 249 248 250 254 256 254 250 247 246 245 244 247 248 246 244 241 239 238 239 240 240 241 241 240 242 244 244 242 242 243 243 242 241 241 241 240 242 246 247 245 243
270 269 269 269 268 268 269 269 269 270 272 276 279 281 283 285 287 287 287 287 286 285 283 281 279 278 278 278 277 274 270 268 267 268 269 269 266 261 258 260 263 260 253 247 246 246 246 249 253 254 250 247 246 245 244 245 246 247 246 244 242 240 239 241 242 242 242 241 241 243 244 244 243 243 243 244 243 242 245 245 245 247 249 250 250
274 273 272 270 268 267 267 267 267 269 271 274 277 279 279 282 285 287 288 287 286 285 284 283 281 279 277 276 276 275 272 268 266 265 266 267 267 263 259 256 257 258 255 248 244 244 244 245 249 252 251 248 246 247 246 245 245 246 246 244 243 242 241 240 241 242 242 241 241 242 243 243 244 244 244 245 244 244 247 251 251 251 254 258 260
275 276 275 273 271 269 268 267 266 267 269 272 274 275 276 277 281 285 287 287 286 285 284 283 283 283 281 278 275 274 273 271 268 266 265 265 266 266 264 259 256 255 255 251 246 244 243 244 245 248 250 249 247 247 248 247 246 246 247 245 241 240 240 240 240 241 242 242 242 243 243 242 243 245 246 246 246 245 248 252 253 254 257 260 261
274 275 275 275 275 273 271 269 268 267 268 270 272 273 274 275 279 283 285 286 285 284 282 281 281 282 282 280 277 274 273 273 272 270 267 265 265 266 266 264 260 256 253 252 249 246 245 244 244 246 248 249 248 247 247 247 247 247 247 246 242 239 238 238 239 241 243 243 243 244 245 244 243 244 246 247 248 248 248 250 252 254 257 259 260
275 274 274 274 275 274 272 270 269 268 268 269 271 273 275 276 278 281 283 284 284 283 280 279 279 280 281 280 277 274 272 271 270 271 270 267 265 264 265 265 264 261 256 253 250 248 247 245 245 245 247 248 249 248 248 247 247 247 247 246 243 239 237 237 238 240 243 244 244 245 245 245 245 245 245 247 248 249 249 250 252 254 255 256 257
279 277 275 275 275 274 272 270 269 269 269 270 271 273 275 276 277 280 282 283 284 283 281 278 277 278 279 279 278 276 274 271 270 269 268 268 266 264 264 264 264 263 260 256 253 250 249 248 247 246 246 247 248 249 249 249 247 246 246 246 245 242 239 237 237 239 242 244 245 246 245 245 245 245 246 246 247 247 248 249 251 252 252 252 252
278 278 278 278 277 276 273 272 271 270 270 270 271 273 275 276 278 279 281 282 283 283 281 279 277 275 275 276 277 277 277 276 274 272 270 268 267 266 264 263 262 262 262 260 257 253 250 249 248 247 246 246 247 248 249 250 250 248 247 246 246 245 243 241 240 239 240 242 244 245 245 245 245 245 246 246 246 247 248 249 250 251 251 251 251
274 276 277 277 276 275 274 274 274 273 273 272 273 275 276 277 278 278 279 280 281 282 281 279 276 273 272 273 275 276 277 278 277 277 275 271 269 266 265 264 262 261 260 260 259 256 253 250 249 248 248 246 246 246 248 249 250 250 249 248 247 247 247 246 244 243 241 241 243 244 245 246 245 245 245 246 247 247 248 249 250 251 252 252 253
271 272 273 273 273 273 273 274 275 275 275 275 276 277 277 277 277 277 278 277 279 281 281 278 274 271 270 270 271 272 273 275 277 278 277 276 272 268 265 264 263 262 261 260 259 258 256 253 251 249 248 248 246 246 246 247 248 249 250 250 249 248 248 247 247 246 245 244 243 243 244 245 246 246 246 246 246 247 248 248 249 250 251 252 253
271 271 271 271 270 269 270 272 273 274 275 276 277 277 277 277 276 276 277 276 277 280 279 275 271 270 269 269 270 271 271 273 275 276 277 276 273 269 266 264 262 261 261 260 260 259 259 257 255 253 251 250 249 247 247 246 247 247 248 249 249 249 248 248 248 247 247 247 246 245 245 244 245 247 247 247 247 247 247 248 249 250 251 251 252
271 270 270 269 269 269 269 270 271 271 273 274 276 276 275 275 275 276 276 275 277 278 277 273 270 269 269 270 271 272 272 273 274 275 275 274 271 268 266 263 261 260 259 259 259 259 259 259 258 258 256 255 253 251 250 249 248 248 248 247 247 248 248 248 249 249 248 248 248 247 247 247 246 246 247 247 248 248 248 249 250 250 250 251 252
271 270 269 268 268 269 269 270 270 270 271 273 274 274 274 274 275 275 275 275 277 278 276 273 271 270 270 271 272 272 273 273 273 274 273 271 269 266 264 263 262 260 259 258 257 257 258 259 259 259 259 258 257 255 253 252 250 249 249 248 248 247 247 248 248 249 249 248 247 247 247 248 248 249 249 248 248 248 248 249 250 250 251 251 251
269 269 269 269 269 269 269 269 269 270 270 271 272 272 273 274 274 274 275 276 277 278 276 274 273 272 272 272 273 273 273 273 273 273 271 269 268 267 264 263 262 261 260 259 258 257 256 257 257 258 258 258 258 258 256 255 253 251 250 249 249 248 248 247 247 248 249 249 248 247 246 246 247 249 250 251 251 251 251 250 250 250 251 251 251
267 269 270 271 271 271 270 270 270 270 270 271 271 271 272 272 273 274 276 277 277 277 276 275 274 273 273 272 272 273 273 272 271 269 268 269 269 269 267 264 262 261 261 261 260 259 258 257 256 257 257 257 257 258 258 257 256 254 253 251 250 249 248 248 247 247 248 248 248 248 248 247 246 246 247 249 251 253 254 254 254 253 253 252 252
268 269 270 272 272 272 272 271 271 271 271 271 271 271 271 272 273 275 276 276 275 274 274 274 273 271 270 270 270 269 269 269 269 269 269 270 270 270 268 265 263 262 261 261 261 260 259 259 258 257 257 257 257 257 257 257 257 257 256 254 252 251 250 249 248 247 247 248 248 248 248 248 248 247 247 247 248 249 251 253 255 256 256 256 256
269 270 271 272 273 273 273 273 273 273 273 273 273 271 271 272 273 273 274 274 273 273 274 273 271 270 269 269 269 268 267 267 268 270 271 271 271 270 268 265 263 262 262 262 262 261 261 260 260 259 258 257 257 257 257 257 257 257 257 257 256 254 253 251 250 249 248 248 248 248 248 248 248 248 248 248 247 248 248 250 251 253 254 256 257
270 271 271 271 271 272 273 274 276 276 275 274 273 272 272 272 273 274 275 275 274 274 274 272 270 269 269 269 268 268 268 268 269 270 270 270 270 269 267 265 263 262 263 264 265 264 263 262 261 260 259 258 258 257 256 256 256 257 257 257 257 256 255 254 253 252 251 250 249 249 248 248 248 248 248 248 249 249 249 249 249 250 251 252 254
268 270 272 272 271 271 272 274 275 273 271 270 271 274 277 277 278 278 278 277 276 276 275 273 272 272 270 269 270 270 271 271 271 271 270 270 269 268 267 265 263 263 265 267 267 267 266 264 263 261 260 259 258 258 257 256 255 255 255 256 256 256 256 255 254 253 253 252 252 251 250 249 249 250 249 249 249 249 249 250 250 250 250 251 251
267 270 270 269 270 271 272 272 270 267 267 270 272 276 279 280 280 280 279 280 280 281 280 278 276 275 273 272 272 272 273 273 274 273 272 271 270 268 266 265 265 266 268 269 269 269 268 266 264 262 261 261 259 258 258 258 257 256 255 255 255 255 255 256 256 255 253 252 253 254 254 251 250 251 251 250 250 250 250 250 250 251 251 251 251
268 270 267 264 266 268 269 269 268 265 266 268 270 273 276 278 277 276 276 278 280 282 282 282 281 279 276 275 273 272 270 270 271 272 272 272 271 270 269 268 268 269 270 271 272 272 270 269 267 265 263 263 262 260 259 259 258 257 256 255 255 255 255 255 256 256 255 253 253 254 256 255 253 252 253 252 252 252 251 251 251 251 251 252 252
264 266 266 266 266 266 266 266 266 265 265 266 268 271 273 274 273 273 274 275 276 278 280 281 281 281 281 280 279 277 275 274 273 272 272 271 271 271 270 270 270 271 272 273 273 272 270 269 268 267 266 265 264 263 261 259 258 257 257 256 256 256 256 256 256 257 257 255 254 254 256 257 256 255 255 255 253 253 253 253 252 251 251 252 252
260 263 266 268 267 265 263 262 263 263 263 265 266 268 269 270 272 274 275 276 276 276 277 278 279 280 280 280 280 280 280 280 280 279 277 276 275 274 273 272 272 272 272 272 272 272 271 269 268 267 267 266 265 264 263 261 260 259 258 257 256 256 256 257 257 258 258 257 256 255 255 256 256 255 256 257 256 255 254 254 254 253 253 252 252
260 262 265 266 265 264 264 263 263 264 265 265 266 266 267 269 271 273 274 275 275 276 276 276 277 277 278 278 279 279 280 281 281 281 281 281 280 279 278 277 276 275 274 273 273 272 272 271 269 268 267 267 266 265 264 263 261 261 260 259 258 257 257 257 258 258 258 258 257 256 256 257 256 255 255 256 257 256 256 255 255 255 254 254 254
260 261 262 263 263 264 265 266 266 267 267 267 267 267 269 270 271 272 273 273 273 274 275 275 276 276 277 278 278 279 280 280 280 281 281 281 281 281 281 281 280 279 278 277 276 274 273 272 271 270 268 267 267 266 265 264 263 262 261 261 260 260 259 259 259 259 259 258 258 257 256 257 257 257 256 256 256 256 256 256 256 255 255 255 255
257 258 259 260 261 262 264 265 266 266 267 267 267 268 268 270 271 271 272 272 272 272 273 274 275 276 277 277 278 278 279 279 280 280 281 282 282 282 282 282 281 281 280 279 278 278 276 275 273 271 269 268 267 267 266 265 264 263 262 262 262 261 261 260 260 260 260 259 258 257 256 256 257 257 257 257 257 257 256 256 256 256 255 255 255
254 255 257 258 259 261 262 264 265 266 266 266 267 267 268 269 270 271 272 272 272 272 272 273 274 275 275 276 277 278 279 279 280 281 282 282 283 283 283 282 282 281 281 281 280 280 278 277 276 274 272 270 269 268 267 266 266 265 263 262 262 262 261 261 261 261 261 261 260 258 257 256 256 256 256 257 258 258 258 258 257 257 256 256 256
254 255 256 257 258 260 261 262 263 264 265 265 266 267 268 269 270 271 272 272 272 271 271 271 272 273 274 275 276 278 279 280 280 281 281 281 281 281 281 282 282 282 282 282 281 280 280 279 278 277 275 273 271 270 268 267 266 266 265 264 263 262 261 261 261 260 261 261 262 261 259 257 256 256 255 255 256 258 259 259 259 258 258 258 257
Height
10703 10703 10704 10704 10703 10703 10703 10705 10707 10707 10706 10706 10706 10707 10708 10709 10710 10710 10711 10711 10711 10711 10709 10708 10706 10705 10704 10703 10702 10701 10701 10702 10703 10704 10705 10706 10708 10709 10710 10710 10710 10711 10711 10713 10714 10715 10716 10717 10718 10719 10721 10721 10722 10723 10724 10725 10726 10728 10730 10732 10733 10734 10736 10738 10740 10742 10743 10745 10746 10746 10747 10748 10749 10750 10751 10753 10754 10755 10756 10757 10758 10758 10759 10760 10760
10698 10698 10698 10698 10697 10697 10698 10700 10701 10701 10700 10700 10701 10702 10704 10705 10706 10706 10706 10706 10705 10705 10704 10703 10701 10700 10699 10697 10696 10695 10695 10696 10697 10699 10700 10701 10703 10704 10704 10705 10705 10706 10707 10708 10710 10711 10712 10712 10714 10715 10716 10717 10718 10719 10720 10721 10722 10724 10726 10728 10730 10731 10732 10734 10736 10738 10739 10741 10742 10743 10744 10745 10746 10746 10748 10749 10750 10752 10753 10754 10755 10756 10756 10757 10757
10693 10694 10692 10691 10691 10692 10694 10695 10696 10695 10695 10696 10697 10698 10700 10701 10702 10702 10701 10701 10700 10700 10699 10698 10696 10694 10693 10691 10690 10690 10690 10691 10692 10694 10695 10696 10697 10698 10699 10700 10701 10702 10703 10704 10705 10706 10707 10708 10709 10710 10711 10712 10714 10715 10715 10717 10718 10720 10722 10724 10726 10728 10729 10731 10733 10734 10736 10737 10739 10740 10741 10742 10743 10743 10744 10745 10747 10748 10750 10751 10752 10753 10754 10754 10755
10689 10688 10687 10686 10687 10689 10690 10690 10690 10690 10691 10692 10693 10694 10696 10697 10697 10697 10696 10696 10695 10695 10694 10692 10690 10688 10687 10685 10685 10685 10685 10686 10687 10688 10689 10690 10692 10693 10695 10696 10697 10698 10699 10700 10700 10701 10703 10704 10704 10705 10706 10707 10709 10710 10711 10712 10714 10716 10718 10720 10722 10724 10725 10727 10729 10731 10733 10734 10736 10737 10738 10739 10740 10741 10741 10742 10743 10745 10746 10748 10749 10750 10751 10751 10752
10683 10683 10682 10683 10685 10687 10686 10686 10686 10686 10687 10688 10689 10690 10692 10692 10693 10693 10692 10691 10690 10689 10688 10685 10683 10682 10681 10680 10680 10680 10680 10681 10682 10683 10684 10685 10687 10689 10690 10691 10693 10694 10694 10696 10696 10697 10697 10698 10699 10700 10701 10702 10703 10704 10706 10707 10709 10712 10714 10716 10718 10720 10722 10724 10726 10727 10729 10731 10732 10734 10735 10737 10737 10738 10739 10739 10741 10742 10743 10745 10746 10747 10748 10749 10750
10679 10679 10679 10680 10683 10683 10680 10681 10682 10683 10683 10684 10685 10685 10686 10687 10688 10687 10686 10685 10684 10682 10681 10679 10677 10676 10675 10675 10675 10675 10676 10676 10677 10679 10680 10681 10683 10685 10686 10688 10689 10690 10691 10691 10692 10692 10692 10692 10693 10694 10695 10696 10697 10698 10700 10702 10705 10707 10709 10712 10714 10716 10718 10720 10722 10723 10725 10727 10728 10730 10732 10733 10734 10735 10736 10737 10738 10739 10740 10742 10743 10744 10745 10746 10747
10675 10676 10676 10675 10677 10676 10674 10675 10678 10678 10679 10679 10680 10680 10680 10681 10682 10681 10680 10679 10678 10676 10674 10672 10671 10671 10671 10671 10671 10671 10671 10672 10673 10675 10676 10677 10679 10681 10683 10684 10685 10686 10687 10687 10687 10687 10686 10686 10687 10688 10689 10690 10692 10693 10695 10697 10700 10703 10705 10708 10710 10712 10715 10716 10718 10720 10722 10723 10724 10726 10728 10730 10731 10732 10734 10735 10736 10737 10738 10739 10740 10741 10742 10743 10744
10671 10672 10672 10671 10672 10671 10669 10670 10671 10673 10674 10674 10674 10674 10674 10674 10675 10675 10674 10673 10672 10670 10668 10667 10666 10666 10666 10666 10666 10667 10667 10668 10669 10671 10672 10674 10675 10677 10679 10680 10681 10682 10683 10683 10682 10682 10682 10681 10682 10683 10684 10685 10686 10688 10689 10692 10695 10698 10701 10704 10707 10709 10711 10713 10715 10717 10718 10720 10721 10723 10725 10726 10728 10730 10731 10732 10733 10734 10735 10736 10737 10738 10739 10740 10741
10666 10667 10667 10668 10668 10668 10667 10666 10666 10667 10669 10669 10669 10669 10668 10668 10668 10668 10668 10667 10666 10665 10664 10662 10662 10661 10662 10662 10662 10663 10663 10664 10666 10667 10669 10670 10671 10673 10675 10676 10677 10678 10678 10678 10678 10678 10677 10677 10678 10678 10679 10680 10682 10684 10685 10688 10690 10694 10697 10700 10703 10706 10708 10710 10711 10713 10715 10716 10718 10720 10721 10723 10725 10726 10728 10729 10730 10731 10732 10733 10734 10735 10736 10737 10738
10662 10663 10663 10664 10665 10665 10665 10664 10663 10663 10664 10664 10663 10664 10663 10663 10662 10662 10662 10661 10661 10661 10660 10658 10657 10657 10657 10657 10658 10659 10660 10661 10663 10664 10665 10666 10668 10669 10671 10672 10672 10673 10673 10674 10674 10674 10673 10674 10674 10674 10675 10676 10677 10679 10682 10684 10687 10690 10693 10696 10699 10702 10705 10707 10708 10710 10711 10713 10714 10716 10718 10720 10721 10723 10724 10725 10727 10728 10729 10730 10731 10732 10733 10733 10734
10658 10659 10659 10661 10662 10662 10661 10661 10659 10659 10659 10659 10659 10659 10659 10659 10657 10656 10656 10655 10655 10655 10655 10654 10653 10653 10653 10653 10654 10655 10656 10657 10659 10660 10661 10662 10664 10665 10666 10668 10668 10669 10669 10669 10669 10669 10670 10670 10671 10671 10671 10672 10674 10676 10678 10681 10684 10687 10690 10693 10696 10699 10701 10703 10704 10706 10708 10709 10711 10713 10714 10716 10717 10719 10720 10722 10723 10724 10725 10726 10727 10728 10729 10730 10730
10654 10655 10655 10657 10658 10658 10657 10657 10656 10656 10656 10655 10655 10655 10655 10654 10653 10652 10651 10650 10650 10650 10650 10650 10650 10650 10650 10649 10649 10650 10651 10653 10655 10656 10657 10658 10660 10661 10662 10663 10664 10665 10664 10665 10665 10665 10665 10666 10667 10667 10668 10669 10670 10672 10674 10677 10680 10684 10687 10690 10692 10695 10697 10699 10700 10702 10704 10706 10707 10709 10710 10712 10713 10715 10716 10718 10719 10720 10721 10722 10723 10724 10725 10725 10726
10651 10651 10651 10652 10654 10654 10654 10653 10652 10652 10652 10652 10651 10650 10650 10650 10649 10649 10648 10647 10647 10645 10645 10646 10646 10647 10647 10646 10646 10646 10647 10648 10650 10651 10653 10654 10655 10656 10657 10659 10660 10660 10660 10660 10661 10660 10661 10662 10663 10663 10664 10665 10666 10668 10670 10673 10676 10680 10682 10685 10687 10689 10692 10694 10695 10697 10699 10701 10703 10705 10706 10708 10709 10711 10712 10714 10715 10716 10717 10717 10718 10719 10720 10721 10722
10647 10647 10647 10648 10649 10650 10649 10649 10648 10648 10648 10648 10648 10646 10646 10645 10645 10645 10644 10644 10644 10643 10643 10644 10645 10645 10644 10643 10642 10641 10642 10644 10645 10647 10648 10649 10651 10652 10653 10654 10655 10656 10656 10656 10656 10656 10656 10658 10659 10659 10660 10661 10662 10663 10666 10668 10671 10674 10677 10679 10681 10684 10686 10688 10689 10691 10694 10696 10699 10700 10702 10703 10705 10706 10708 10709 10710 10711 10712 10712 10713 10714 10715 10716 10717
10643 10643 10644 10644 10645 10645 10645 10645 10644 10644 10644 10643 10643 10642 10641 10640 10640 10640 10640 10641 10640 10640 10642 10643 10643 10642 10640 10639 10638 10637 10638 10639 10641 10642 10643 10645 10646 10647 10648 10649 10651 10651 10652 10652 10652 10652 10652 10654 10654 10654 10656 10657 10657 10659 10661 10663 10666 10669 10673 10675 10678 10681 10684 10686 10687 10689 10690 10692 10694 10696 10697 10699 10700 10701 10702 10704 10705 10706 10707 10708 10708 10709 10710 10711 10712
10638 10639 10639 10639 10639 10639 10640 10640 10640 10639 10639 10639 10638 10637 10636 10635 10635 10636 10637 10637 10636 10636 10639 10639 10638 10639 10637 10636 10635 10635 10635 10635 10637 10638 10639 10640 10642 10643 10644 10645 10646 10646 10647 10647 10648 10648 10648 10649 10650 10650 10651 10652 10653 10655 10658 10660 10663 10666 10670 10673 10676 10679 10682 10683 10685 10686 10687 10688 10690 10691 10693 10694 10695 10697 10698 10699 10700 10702 10703 10703 10704 10705 10705 10706 10707
10633 10634 10634 10634 10634 10634 10634 10634 10635 10635 10634 10634 10634 10633 10632 10631 10631 10632 10633 10634 10633 10633 10636 10636 10634 10634 10634 10633 10632 10632 10632 10632 10633 10634 10635 10636 10636 10638 10639 10640 10640 10641 10641 10642 10643 10643 10644 10644 10645 10645 10646 10648 10650 10653 10655 10657 10660 10664 10666 10669 10672 10675 10676 10678 10680 10681 10682 10684 10686 10687 10689 10689 10690 10692 10693 10695 10697 10698 10699 10700 10700 10701 10702 10702 10703
10629 10629 10630 10630 10629 10629 10629 10630 10630 10630 10630 10630 10629 10628 10627 10626 10626 10627 10629 10630 10630 10630 10633 10634 10631 10629 10629 10629 10629 10629 10629 10629 10629 10629 10629 10630 10631 10632 10633 10634 10634 10635 10635 10637 10638 10638 10639 10639 10640 10641 10643 10645 10648 10650 10652 10654 10656 10659 10662 10665 10668 10670 10671 10674 10676 10678 10679 10681 10683 10684 10684 10683 10684 10687 10689 10691 10693 10694 10695 10696 10697 10698 10698 10698 10699
10625 10625 10625 10625 10625 10625 10625 10626 10626 10626 10625 10625 10624 10624 10623 10622 10622 10623 10624 10626 10627 10627 10627 10629 10628 10626 10625 10624 10624 10624 10624 10624 10624 10624 10623 10624 10625 10626 10627 10628 10629 10629 10630 10631 10632 10633 10633 10634 10636 10638 10640 10642 10645 10646 10648 10650 10652 10655 10658 10661 10663 10665 10667 10670 10673 10675 10676 10678 10680 10680 10679 10679 10680 10682 10684 10687 10689 10690 10691 10692 10693 10694 10694 10694 10694
10619 10620 10620 10621 10621 10621 10621 10621 10621 10621 10621 10620 10620 10619 10619 10619 10618 10619 10620 10621 10622 10623 10623 10623 10623 10621 10620 10620 10620 10620 10620 10620 10619 10619 10619 10619 10619 10620 10621 10622 10623 10624 10624 10625 10627 10628 10629 10630 10632 10634 10637 10639 10641 10642 10644 10646 10648 10650 10654 10656 10658 10660 10662 10666 10670 10671 10672 10674 10675 10675 10674 10675 10676 10678 10680 10684 10685 10686 10687 10689 10690 10690 10691 10690 10690
10612 10614 10615 10615 10616 10616 10616 10616 10616 10616 10616 10616 10616 10616 10615 10615 10615 10615 10615 10616 10617 10618 10618 10618 10618 10617 10617 10616 10616 10616 10616 10616 10615 10615 10615 10615 10615 10615 10615 10616 10616 10618 10619 10621 10622 10623 10624 10626 10628 10630 10633 10636 10637 10638 10640 10642 10644 10646 10649 10652 10654 10656 10658 10662 10665 10667 10668 10669 10670 10669 10669 10671 10674 10676 10678 10682 10683 10681 10682 10684 10685 10685 10686 10686 10687
10606 10607 10608 10609 10610 10611 10611 10611 10611 10611 10611 10612 10612 10612 10612 10612 10612 10612 10611 10612 10612 10613 10614 10614 10614 10613 10613 10612 10612 10612 10612 10612 10611 10611 10611 10611 10612 10612 10611 10611 10611 10612 10614 10616 10618 10620 10620 10622 10624 10626 10629 10632 10633 10635 10635 10637 10639 10642 10645 10647 10649 10652 10654 10657 10661 10662 10663 10665 10664 10662 10663 10667 10670 10673 10676 10679 10679 10677 10678 10680 10680 10680 10681 10682 10683
10601 10601 10602 10603 10604 10605 10606 10606 10606 10606 10606 10607 10607 10608 10609 10608 10608 10608 10608 10608 10608 10609 10609 10609 10609 10609 10609 10609 10608 10608 10608 10608 10608 10608 10608 10608 10608 10609 10608 10608 10607 10608 10610 10612 10614 10616 10617 10618 10619 10622 10624 10627 10629 10631 10632 10633 10634 10637 10639 10641 10644 10647 10650 10652 10655 10656 10658 10660 10659 10657 10660 10665 10668 10670 10673 10675 10675 10674 10674 10675 10675 10676 10677 10678 10679
10595 10596 10597 10598 10598 10599 10600 10601 10601 10601 10601 10602 10602 10603 10603 10604 10604 10603 10604 10604 10605 10605 10605 10605 10605 10605 10605 10605 10605 10604 10604 10604 10604 10604 10605 10605 10605 10605 10605 10605 10605 10605 10606 10608 10610 10612 10613 10614 10615 10617 10620 10622 10624 10626 10627 10628 10630 10632 10634 10636 10639 10642 10644 10646 10648 10650 10653 10655 10654 10653 10657 10662 10665 10667 10667 10669 10671 10669 10667 10668 10670 10671 10672 10673 10674
10588 10589 10591 10592 10593 10594 10594 10595 10596 10596 10596 10597 10597 10597 10598 10599 10599 10599 10599 10600 10601 10601 10602 10602 10601 10601 10601 10601 10601 10601 10601 10601 10601 10601 10601 10601 10601 10602 10602 10602 10602 10602 10603 10605 10606 10608 10609 10610 10611 10613 10615 10617 10618 10620 10622 10624 10625 10627 10629 10631 10633 10636 10638 10639 10641 10643 10646 10648 10649 10649 10652 10655 10659 10660 10660 10663 10665 10663 10661 10662 10664 10666 10667 10669 10670
10582 10583 10584 10586 10587 10588 10589 10590 10590 10591 10592 10592 10593 10593 10594 10594 10594 10594 10595 10595 10596 10597 10597 10598 10597 10597 10597 10596 10597 10597 10597 10597 10597 10597 10597 10597 10598 10598 10598 10598 10598 10598 10599 10601 10602 10604 10605 10606 10607 10608 10610 10612 10613 10615 10617 10619 10620 10622 10624 10626 10628 10630 10631 10633 10635 10637 10638 10641 10643 10644 10646 10650 10652 10653 10655 10656 10658 10657 10657 10658 10660 10661 10663 10665 10666
10577 10578 10578 10579 10581 10582 10584 10585 10585 10586 10587 10587 10588 10589 10590 10590 10590 10590 10590 10590 10591 10591 10592 10592 10592 10592 10592 10592 10592 10592 10592 10593 10593 10593 10594 10594 10594 10594 10594 10595 10595 10595 10596 10597 10598 10599 10600 10602 10603 10604 10605 10607 10609 10610 10612 10614 10616 10618 10619 10621 10623 10624 10625 10627 10629 10630 10631 10635 10638 10638 10640 10644 10645 10647 10649 10650 10652 10653 10653 10654 10656 10657 10658 10660 10661
10573 10573 10573 10574 10575 10576 10578 10579 10580 10581 10582 10582 10583 10584 10585 10585 10585 10585 10585 10586 10586 10586 10586 10586 10587 10587 10587 10586 10586 10587 10587 10588 10588 10589 10590 10590 10591 10591 10591 10591 10591 10592 10592 10593 10594 10595 10596 10597 10598 10599 10601 10602 10604 10605 10607 10608 10610 10613 10615 10616 10617 10619 10620 10621 10623 10624 10625 10628 10631 10632 10634 10637 10639 10641 10643 10644 10646 10647 10648 10649 10650 10652 10653 10655 10656
10567 10568 10569 10570 10570 10571 10572 10573 10574 10575 10576 10576 10577 10577 10578 10579 10579 10579 10580 10580 10580 10581 10581 10581 10581 10581 10581 10581 10581 10581 10582 10582 10583 10584 10585 10586 10587 10587 10587 10587 10588 10588 10589 10589 10590 10591 10591 10592 10593 10595 10596 10598 10599 10600 10602 10603 10605 10607 10609 10611 10612 10613 10615 10616 10618 10619 10620 10622 10624 10626 10628 10629 10632 10634 10636 10638 10640 10641 10642 10643 10645 10646 10648 10649 10651
10560 10562 10564 10565 10566 10566 10566 10567 10567 10568 10569 10569 10570 10571 10571 10572 10573 10573 10574 10574 10575 10575 10575 10576 10576 10576 10575 10575 10576 10576 10577 10577 10578 10579 10580 10581 10582 10582 10583 10583 10584 10584 10585 10585 10586 10586 10587 10587 10588 10589 10591 10593 10594 10595 10597 10598 10600 10601 10603 10605 10606 10607 10609 10610 10612 10613 10615 10616 10618 10619 10621 10623 10625 10626 10629 10631 10633 10634 10635 10636 10638 10640 10641 10643 10645
10554 10556 10558 10559 10560 10560 10560 10561 10561 10562 10562 10563 10563 10564 10565 10566 10567 10567 10568 10569 10569 10569 10570 10570 10570 10570 10570 10570 10571 10571 10572 10572 10573 10574 10575 10576 10577 10577 10578 10578 10579 10579 10580 10580 10581 10581 10582 10582 10583 10584 10585 10587 10589 10590 10591 10592 10594 10595 10597 10599 10600 10601 10603 10604 10606 10607 10609 10610 10612 10613 10615 10616 10618 10619 10621 10624 10626 10627 10629 10630 10631 10633 10634 10636 10637
10550 10551 10553 10553 10553 10553 10553 10554 10554 10554 10555 10556 10557 10558 10558 10559 10560 10561 10562 10563 10563 10564 10564 10564 10565 10565 10565 10565 10566 10566 10567 10567 10568 10569 10570 10571 10571 10572 10572 10573 10573 10574 10574 10575 10576 10576 10577 10577 10577 10578 10579 10580 10582 10584 10585 10586 10588 10589 10591 10593 10594 10596 10597 10598 10599 10600 10602 10604 10605 10607 10608 10609 10611 10613 10614 10616 10618 10620 10622 10623 10625 10626 10627 10629 10631
10544 10546 10546 10547 10547 10547 10547 10548 10548 10548 10548 10549 10550 10551 10552 10553 10554 10555 10556 10557 10557 10557 10558 10558 10559 10559 10560 10560 10561 10561 10562 10562 10563 10563 10564 10565 10566 10566 10567 10567 10568 10568 10569 10569 10570 10570 10571 10571 10572 10572 10573 10574 10575 10577 10579 10580 10581 10583 10585 10586 10588 10589 10590 10591 10592 10593 10595 10596 10598 10600 10601 10603 10604 10605 10607 10608 10610 10612 10614 10616 10618 10619 10621 10622 10623
10537 10539 10539 10540 10540 10541 10542 10542 10542 10542 10542 10543 10544 10544 10545 10546 10547 10548 10549 10550 10550 10551 10551 10552 10552 10553 10554 10554 10555 10556 10557 10557 10558 10558 10558 10559 10559 10560 10561 10561 10562 10563 10563 10563 10564 10564 10565 10565 10566 10567 10568 10568 10570 10571 10572 10574 10575 10576 10578 10579 10581 10583 10584 10584 10585 10586 10588 10589 10591 10592 10594 10595 10597 10598 10600 10601 10603 10604 10606 10608 10610 10612 10614 10615 10616
10529 10530 10531 10531 10532 10534 10536 10537 10537 10537 10537 10537 10537 10537 10538 10538 10539 10540 10541 10542 10543 10543 10544 10544 10545 10546 10547 10548 10548 10549 10550 10551 10551 10552 10552 10552 10553 10553 10554 10554 10555 10556 10557 10557 10558 10558 10559 10559 10560 10561 10562 10563 10564 10565 10566 10567 10568 10569 10570 10572 10574 10575 10576 10577 10578 10579 10581 10582 10583 10585 10586 10588 10589 10591 10592 10594 10595 10597 10598 10600 10602 10604 10606 10607 10609
10521 10521 10522 10524 10525 10526 10528 10530 10530 10531 10531 10531 10530 10530 10530 10531 10531 10532 10533 10534 10535 10535 10536 10537 10538 10539 10540 10540 10541 10542 10543 10543 10544 10544 10545 10545 10545 10546 10546 10547 10548 10549 10550 10551 10551 10552 10552 10553 10553 10554 10555 10556 10557 10558 10559 10560 10561 10562 10563 10564 10566 10567 10569 10570 10571 10572 10573 10574 10576 10577 10578 10580 10581 10583 10585 10586 10588 10589 10591 10592 10594 10596 10597 10599 10601
10514 10513 10514 10515 10517 10519 10520 10521 10522 10524 10524 10524 10523 10523 10523 10523 10523 10524 10525 10526 10528 10528 10529 10529 10530 10531 10532 10533 10533 10534 10534 10535 10536 10537 10537 10538 10538 10539 10539 10540 10540 10541 10542 10543 10544 10545 10546 10546 10546 10547 10548 10548 10549 10550 10551 10552 10553 10555 10556 10557 10558 10559 10560 10562 10563 10564 10565 10567 10568 10569 10570 10572 10573 10574 10576 10577 10579 10581 10583 10584 10586 10588 10589 10591 10593
10508 10507 10507 10507 10509 10510 10511 10512 10514 10515 10516 10516 10516 10515 10515 10515 10515 10516 10518 10519 10520 10521 10522 10522 10523 10524 10525 10525 10526 10526 10526 10527 10528 10529 10530 10530 10531 10531 10532 10532 10533 10534 10534 10535 10537 10537 10538 10539 10539 10540 10540 10541 10541 10542 10543 10544 10545 10546 10548 10549 10550 10551 10552 10553 10554 10555 10556 10558 10559 10560 10561 10563 10564 10566 10567 10569 10570 10572 10574 10575 10577 10579 10580 10582 10584
10501 10501 10501 10501 10502 10502 10503 10504 10505 10508 10508 10508 10507 10507 10507 10507 10508 10509 10511 10511 10512 10514 10515 10515 10516 10516 10517 10518 10518 10519 10519 10519 10520 10521 10522 10523 10523 10523 10524 10524 10525 10526 10527 10528 10529 10530 10530 10531 10532 10533 10533 10533 10533 10534 10534 10535 10537 10538 10539 10540 10542 10542 10543 10544 10545 10546 10547 10548 10550 10551 10552 10553 10555 10556 10558 10560 10562 10564 10565 10566 10568 10569 10571 10573 10574
10494 10494 10495 10495 10494 10494 10495 10496 10497 10499 10500 10498 10497 10497 10498 10500 10501 10502 10503 10503 10504 10506 10508 10509 10509 10509 10510 10511 10511 10511 10512 10512 10513 10513 10514 10515 10515 10516 10516 10516 10517 10518 10519 10520 10521 10521 10522 10523 10524 10525 10525 10526 10526 10526 10526 10527 10528 10529 10530 10531 10532 10534 10534 10535 10536 10538 10539 10540 10540 10541 10542 10543 10544 10546 10548 10551 10553 10555 10556 10557 10559 10560 10562 10563 10564
10488 10487 10488 10488 10487 10487 10488 10490 10491 10491 10489 10488 10486 10485 10490 10493 10494 10495 10495 10495 10497 10499 10501 10502 10503 10503 10505 10506 10504 10504 10505 10506 10506 10507 10507 10507 10508 10508 10508 10509 10509 10510 10511 10512 10512 10513 10514 10514 10515 10516 10517 10517 10517 10517 10518 10519 10519 10519 10520 10521 10522 10523 10525 10526 10527 10528 10529 10531 10531 10531 10532 10533 10535 10536 10538 10541 10543 10545 10546 10547 10549 10551 10553 10554 10555
10483 10482 10482 10480 10478 10480 10483 10484 10485 10483 10479 10478 10476 10476 10481 10486 10486 10486 10487 10487 10489 10491 10493 10495 10495 10496 10499 10499 10498 10497 10498 10499 10500 10500 10500 10500 10500 10500 10500 10501 10501 10502 10503 10504 10505 10505 10505 10505 10505 10506 10506 10507 10508 10508 10508 10509 10510 10510 10511 10511 10511 10512 10513 10514 10516 10517 10520 10522 10522 10520 10521 10524 10526 10526 10528 10530 10533 10534 10535 10536 10539 10541 10542 10543 10544
10478 10475 10475 10473 10471 10473 10477 10477 10478 10476 10472 10472 10471 10470 10473 10477 10477 10477 10477 10477 10479 10482 10485 10487 10488 10488 10490 10491 10490 10490 10490 10491 10491 10492 10492 10492 10493 10493 10492 10493 10493 10493 10494 10495 10496 10495 10495 10495 10495 10496 10496 10496 10497 10498 10499 10500 10501 10501 10501 10501 10501 10502 10503 10504 10504 10505 10509 10513 10514 10510 10509 10513 10517 10517 10517 10520 10523 10524 10525 10526 10528 10530 10531 10532 10533
10472 10464 10462 10464 10464 10467 10470 10470 10470 10469 10467 10467 10467 10466 10466 10469 10469 10470 10469 10470 10470 10471 10473 10476 10478 10479 10480 10481 10481 10482 10482 10483 10484 10484 10484 10485 10485 10485 10485 10485 10485 10485 10486 10487 10486 10485 10484 10484 10485 10485 10486 10486 10486 10488 10489 10490 10490 10490 10490 10490 10491 10492 10493 10494 10494 10494 10496 10502 10505 10503 10498 10500 10507 10509 10507 10508 10512 10513 10514 10515 10517 10519 10520 10521 10522
10464 10453 10450 10455 10457 10459 10461 10462 10462 10462 10461 10461 10462 10461 10461 10462 10463 10464 10463 10464 10465 10465 10465 10466 10467 10468 10469 10470 10470 10471 10472 10473 10475 10476 10477 10477 10478 10478 10477 10477 10477 10477 10478 10478 10477 10474 10474 10475 10475 10475 10475 10475 10476 10477 10477 10478 10478 10478 10479 10479 10480 10482 10483 10484 10484 10483 10484 10488 10493 10494 10490 10488 10494 10500 10497 10496 10501 10503 10502 10503 10505 10508 10509 10509 10511
10456 10447 10445 10447 10448 10450 10452 10453 10453 10454 10454 10455 10455 10454 10455 10455 10457 10457 10457 10457 10458 10458 10458 10458 10458 10459 10459 10460 10461 10461 10461 10462 10463 10465 10466 10467 10468 10468 10468 10469 10469 10469 10469 10468 10466 10464 10464 10465 10466 10465 10465 10465 10464 10464 10464 10465 10466 10467 10467 10468 10469 10471 10473 10473 10473 10472 10473 10475 10479 10483 10482 10477 10481 10488 10488 10484 10487 10491 10490 10490 10492 10495 10497 10498 10500
10448 10444 10441 10440 10440 10441 10442 10443 10444 10445 10446 10446 10446 10446 10447 10448 10449 10450 10450 10450 10450 10450 10450 10450 10450 10450 10451 10451 10452 10452 10452 10453 10453 10454 10455 10456 10457 10457 10457 10458 10458 10458 10458 10457 10456 10455 10454 10455 10455 10455 10455 10454 10453 10452 10452 10453 10454 10455 10456 10457 10457 10459 10462 10462 10462 10461 10461 10463 10465 10470 10472 10468 10467 10475 10477 10473 10474 10477 10477 10477 10479 10482 10485 10487 10487
10440 10438 10435 10433 10433 10433 10433 10434 10434 10435 10436 10436 10437 10438 10438 10439 10441 10442 10443 10443 10442 10441 10441 10441 10441 10441 10442 10442 10442 10442 10443 10443 10444 10444 10445 10445 10445 10445 10446 10446 10446 10446 10446 10445 10445 10444 10444 10444 10444 10444 10443 10442 10441 10441 10441 10441 10443 10444 10445 10446 10446 10448 10450 10451 10450 10449 10449 10450 10451 10455 10460 10459 10456 10461 10464 10462 10461 10463 10463 10464 10466 10470 10473 10474 10474
10430 10429 10427 10426 10426 10425 10425 10424 10424 10424 10425 10426 10427 10428 10429 10430 10432 10433 10434 10434 10434 10433 10432 10432 10432 10432 10432 10433 10433 10433 10434 10434 10434 10434 10434 10434 10434 10433 10434 10434 10434 10433 10433 10432 10432 10432 10432 10432 10431 10431 10430 10430 10430 10430 10429 10430 10431 10432 10434 10435 10435 10436 10438 10439 10439 10437 10436 10436 10437 10440 10446 10448 10446 10448 10450 10449 10448 10449 10449 10450 10453 10457 10460 10460 10460
10420 10420 10420 10419 10418 10418 10417 10416 10415 10415 10416 10416 10417 10418 10420 10421 10422 10424 10424 10425 10424 10424 10424 10424 10423 10424 10424 10424 10424 10424 10424 10424 10424 10424 10424 10423 10422 10421 10421 10421 10420 10420 10419 10419 10419 10419 10418 10417 10417 10417 10417 10417 10417 10417 10417 10417 10418 10419 10421 10423 10423 10423 10425 10426 10426 10426 10424 10423 10421 10423 10431 10435 10434 10435 10437 10437 10435 10435 10435 10437 10439 10442 10445 10446 10447
10411 10411 10412 10411 10411 10410 10409 10408 10407 10407 10407 10407 10408 10410 10412 10413 10414 10415 10415 10415 10415 10415 10415 10415 10416 10416 10416 10416 10416 10416 10415 10415 10415 10414 10414 10413 10411 10410 10408 10408 10408 10407 10407 10406 10405 10404 10404 10403 10403 10403 10403 10403 10404 10404 10404 10405 10405 10406 10407 10409 10409 10410 10411 10412 10412 10414 10414 10411 10406 10406 10415 10420 10420 10421 10423 10425 10426 10424 10421 10422 10425 10427 10429 10431 10432